Regional Weather Roundup
Issued by NWS

Home | Current Version | Previous Version | Text Only | Print | Product List | Glossary On
Versions: 1 2 3 4 5 6 7 8 9 10 11 12 13 14 15 16 17 18 19 20 21 22 23 24 25 26 27 28 29 30 31 32 33 34 35 36 37 38 39 40 41 42 43 44 45 46 47 48 49 50
000
ASUS44 KLIX 041012
RWRLA
LOUISIANA WEATHER ROUNDUP
NATIONAL WEATHER SERVICE NEW ORLEANS LA
500 AM CDT MON MAY 04 2015

NOTE: "FAIR" INDICATES FEW OR NO CLOUDS BELOW 12,000 FEET WITH NO
      SIGNIFICANT WEATHER AND/OR OBSTRUCTIONS TO VISIBILITY.
      SKY/WX - SKY CONDITION AND SIGNIFICANT WEATHER.
      TMP - AIR TEMPERATURE.    DP   - DEWPOINT TEMPERATURE.
      RH  - RELATIVE HUMIDITY.  PRES - PRESSURE.
      HX  - HEAT INDEX.         WCI  - WIND CHILL INDEX.

*  THESE STATIONS ARE NOT NWS OR FAA STATIONS AND ARE NOT UNDER
   NWS QUALITY CONTROL.

LAZ040-048-061>063-065-066-069-041100-
SOUTHEAST LOUISIANA

CITY           SKY/WX    TMP DP  RH WIND       PRES   REMARKS
N.O. AUDUBON   NOT AVBL
N.O. INTL ARPT PTCLDY    67  61  81 E5        30.07S
N.O. LAKEFRONT PTCLDY    72  65  78 E6        30.08S
SLIDELL        PTCLDY    59  58  96 CALM      30.09R
BATON ROUGE    CLEAR     58  56  93 CALM      30.09S
BOOTHVILLE     CLEAR     71  66  84 SE6       30.07S
BELLE CHASSE   LGT RAIN  64  62  93 CALM      30.07S
BOGALUSA*        N/A     58  55  89 CALM      30.12S
GALLIANO*      MOSUNNY   64  62  94 CALM      30.07S
NEW ROADS*     FAIR      61  59  94 CALM      30.10R
GONZALES*      FAIR      58  58 100 CALM      30.08R
HAMMOND*       CLEAR     57  54  88 CALM      30.10F
HOUMA*         CLEAR     59  58  99 CALM      30.07S FOG
PORT FOURCHON* MOSUNNY   72  68  88 CALM      30.09S

$$

LAZ041-044-053-054-041100-
SOUTHWEST LOUISIANA

CITY           SKY/WX    TMP DP  RH WIND       PRES   REMARKS
LAKE CHARLES   CLEAR     62  60  93 CALM      30.05S
LAFAYETTE      CLEAR     63  60  90 CALM      30.07S
PATTERSON      CLEAR    N/A N/A N/A CALM      30.08S
SALT POINT       N/A     63  61  93 CALM      30.06S
NEW IBERIA     CLEAR     63  59  87 E6        30.08R
CHENAULT AIRPK CLEAR     62  62  98 CALM      30.06S FOG

$$

LAZ027-028-041100-
CENTRAL LOUISIANA

CITY           SKY/WX    TMP DP  RH WIND       PRES   REMARKS
FORT POLK      CLEAR     59  56  89 E3        30.07S
ALEXANDRIA INT MOCLDY    61  59  93 CALM      30.07S
ALEXANDRIA     CLEAR     59  57  93 CALM      30.09S FOG

$$

LAZ001-002-041100-
NORTHWEST LOUISIANA

CITY           SKY/WX    TMP DP  RH WIND       PRES   REMARKS
SHREVEPORT     CLEAR     60  56  86 CALM      30.07R
BARKSDALE AFB  CLEAR     56  56  99 SE3       30.07R
DTN SHREVEPORT CLEAR     62  55  77 SE3       30.08R

$$

LAZ014-016-041100-
NORTHEAST LOUISIANA

CITY           SKY/WX    TMP DP  RH WIND       PRES   REMARKS
MONROE         CLEAR     62  59  90 CALM      30.11R
TALLULAH       CLEAR     61  56  83 SE3       30.11R

$$




USA.gov is the U.S. government's official web portal to all federal, state and local government web resources and services.